Wind_Speed
44 44 44 44 44 44 45 45 46 47 48 49 50 51 52 53 54 56 57 58 59 60 61 62 62 63 64 65 66 66 67 67 68 67 67 67 66 66 66 65 66 66 66 66 67 67 67 67 66 66 66 66 65 65 64 64 65 65 66 68 68 68 70 71 72 69 61 60 65 67 67 69 69 69 70 71 72 73 74 75 76 78 79 80 81
43 43 43 44 45 46 47 48 49 50 51 52 53 54 55 56 57 58 59 60 60 61 62 63 64 65 65 65 66 67 67 67 67 67 66 66 65 65 66 66 66 66 67 67 67 67 67 66 66 66 66 66 65 65 65 66 67 68 68 69 69 69 72 74 75 74 69 64 68 71 71 72 72 72 73 74 75 76 76 77 78 78 79 80 81
44 45 45 46 48 49 50 51 52 52 53 54 55 56 57 58 58 59 60 61 62 63 64 64 65 65 65 66 66 66 66 66 66 66 65 65 65 65 66 66 66 66 66 66 66 66 66 66 66 66 67 67 66 67 67 67 68 69 69 70 72 73 75 78 79 79 77 71 70 74 75 75 75 75 76 76 77 77 77 77 78 78 79 80 80
46 47 48 49 50 51 52 52 53 54 55 56 57 58 59 60 61 62 63 63 64 64 65 65 65 65 65 65 65 65 65 65 64 64 64 64 64 65 65 65 65 66 66 66 66 66 67 67 67 68 68 68 67 67 68 69 69 71 72 73 75 77 78 81 82 82 82 78 74 75 78 79 78 78 78 78 78 78 77 77 77 78 79 79 80
49 50 51 51 52 53 54 55 55 56 57 58 59 60 61 62 63 63 63 64 64 64 65 65 65 65 65 65 64 64 64 63 63 63 63 63 63 64 64 65 65 65 66 66 67 67 68 68 68 68 68 68 68 69 70 71 72 74 75 76 78 79 80 81 83 84 84 82 79 78 79 80 80 79 79 78 78 78 77 76 77 77 78 79 80
51 52 53 54 54 55 56 57 58 58 59 60 61 62 62 63 63 63 64 64 64 64 64 64 64 64 63 63 63 62 62 62 62 63 63 64 64 64 65 65 66 66 67 68 68 68 68 68 68 68 69 70 70 71 73 74 76 76 77 78 79 80 81 81 83 84 85 84 83 81 80 81 81 80 79 79 78 78 77 77 77 78 78 79 80
54 55 56 57 57 58 59 59 60 61 62 62 63 63 63 64 64 64 64 64 63 63 63 62 62 62 61 61 61 62 62 63 63 64 64 65 65 66 66 67 67 68 68 68 69 69 69 69 70 70 72 73 73 74 75 77 77 78 78 80 80 81 82 82 83 85 85 85 84 83 82 81 81 81 79 78 78 78 78 79 79 78 79 80 81
56 57 58 59 59 60 61 62 63 63 64 64 64 64 64 64 64 63 63 62 62 61 61 61 60 60 60 61 62 63 64 65 65 66 66 67 67 67 67 67 67 67 68 68 69 70 70 71 72 73 74 75 76 77 78 79 79 79 80 81 82 82 83 84 84 85 86 86 85 83 82 81 80 80 79 78 79 79 79 80 80 80 80 81 81
58 59 59 60 61 62 62 63 64 64 65 64 64 64 64 63 62 62 61 61 61 60 60 59 59 60 61 62 64 65 66 67 67 68 68 68 68 68 68 68 69 69 70 70 71 72 73 74 75 76 77 78 79 80 80 81 82 82 82 83 84 85 85 85 86 86 87 87 85 84 83 81 80 80 80 79 80 80 81 81 81 81 81 82 82
61 61 61 61 62 63 64 64 64 64 64 64 63 63 62 62 61 61 61 61 60 59 59 60 61 62 64 65 66 67 67 68 68 69 69 70 70 71 71 72 72 73 74 74 75 76 77 78 78 79 80 81 82 83 84 84 85 86 86 86 87 87 88 87 87 88 88 88 86 85 84 83 81 82 81 80 80 81 81 81 82 82 81 81 82
62 63 63 63 64 64 64 64 63 63 63 62 62 61 61 61 61 61 61 60 60 60 61 62 64 66 67 68 68 68 69 69 70 71 72 73 74 74 75 75 76 77 78 78 79 80 80 81 82 83 84 84 85 85 86 86 87 87 87 87 88 89 89 89 89 88 89 88 87 85 84 83 82 82 82 81 81 81 80 80 81 81 81 81 81
63 64 64 64 64 64 64 63 63 62 62 61 61 61 61 61 61 61 61 61 61 62 64 66 68 69 70 70 70 70 71 72 73 75 76 77 78 78 78 79 79 80 81 82 83 83 84 84 85 86 86 87 87 88 88 88 88 88 88 88 88 89 89 90 90 89 89 89 87 85 84 83 82 81 81 81 80 80 79 79 79 80 80 80 80
63 63 63 64 64 64 63 63 62 62 62 62 61 61 61 61 61 61 62 63 64 65 68 70 71 72 73 73 72 73 74 75 76 78 79 80 81 82 82 83 84 84 85 86 86 86 87 87 87 87 88 89 89 90 90 90 89 89 89 89 89 88 89 89 89 90 90 89 88 85 83 83 83 81 79 80 79 78 77 77 78 78 79 80 80
63 63 63 64 63 63 63 63 63 63 63 62 62 61 61 62 63 64 65 66 68 69 71 73 74 75 76 76 76 76 77 79 80 82 83 84 86 87 87 88 88 88 88 89 89 89 90 90 90 89 89 90 91 91 92 92 92 91 91 90 90 89 88 88 88 89 89 89 88 86 82 81 81 79 78 77 76 75 75 75 76 77 78 79 79
64 64 64 64 64 64 64 64 65 64 64 63 62 62 64 65 67 68 69 70 72 73 75 76 77 78 79 79 80 80 81 83 85 86 87 89 90 91 91 91 92 91 91 92 92 93 93 93 93 92 92 92 92 93 94 94 94 93 92 91 90 88 87 87 87 87 87 87 87 85 81 79 78 77 76 75 74 74 74 74 75 76 77 77 77
65 65 65 65 65 65 66 66 65 64 64 63 64 66 68 70 72 72 73 74 76 77 79 79 80 81 82 83 84 85 85 87 88 89 90 92 93 93 94 94 94 94 94 95 95 96 96 96 96 96 95 95 95 95 96 96 96 95 93 92 90 88 87 86 86 86 85 85 84 83 81 79 77 76 75 73 73 73 72 72 73 74 75 75 75
66 66 66 66 66 66 66 66 65 65 65 67 69 71 73 74 75 76 77 78 79 81 82 82 83 84 85 87 88 88 88 89 91 92 92 94 95 96 96 97 97 96 96 97 97 97 97 97 97 98 97 97 97 97 97 98 98 97 95 94 92 90 88 86 85 85 84 84 83 81 80 79 77 76 74 72 72 72 71 71 71 72 73 73 72
66 66 67 67 67 67 67 66 66 67 69 71 73 75 76 78 79 80 81 82 83 84 85 86 86 87 88 89 91 91 92 92 93 94 95 96 98 99 100 100 100 100 100 100 101 100 100 99 99 100 100 100 99 99 100 100 100 100 98 97 95 93 89 87 86 86 84 83 82 80 80 78 77 75 73 71 71 70 70 70 70 70 71 70 68
67 67 68 68 68 68 68 69 70 72 74 76 77 79 80 82 83 84 85 86 86 87 88 89 89 90 91 92 93 95 95 95 96 97 99 100 101 103 104 104 104 104 104 104 104 104 103 103 102 103 103 103 103 102 102 102 102 101 100 99 97 94 91 89 88 86 85 83 81 80 79 78 77 75 72 70 70 68 68 68 68 68 66 65 63
68 68 69 69 70 70 72 73 75 77 78 80 82 83 84 85 86 86 87 88 89 89 91 92 92 93 94 95 96 97 98 99 99 100 101 102 103 105 106 107 107 107 106 106 105 105 104 104 104 104 104 105 104 104 103 103 102 102 101 99 97 94 92 91 89 87 85 83 81 80 78 77 76 73 71 69 67 66 66 66 64 62 61 59 56
69 70 70 71 73 74 76 78 80 81 82 83 84 85 86 87 87 88 89 90 91 92 93 94 95 96 96 97 98 99 100 101 101 102 103 103 104 105 106 107 108 108 107 106 106 105 105 104 104 104 104 105 105 104 104 103 102 102 100 98 97 94 92 91 88 86 84 82 80 78 77 75 72 70 68 66 65 64 64 63 61 58 56 54 50
71 72 73 75 77 78 80 81 83 84 84 85 85 86 87 88 89 90 91 92 93 94 95 97 98 98 98 99 99 100 100 101 102 102 103 104 104 105 106 106 107 108 108 108 107 107 107 107 106 106 106 106 106 105 104 102 101 100 98 96 94 92 90 88 86 83 81 79 77 76 74 71 68 66 65 63 62 62 61 59 55 49 45 43 43
74 75 77 79 80 81 82 83 84 85 85 86 86 87 88 89 90 91 92 93 94 95 96 98 99 99 99 99 99 100 100 101 101 102 102 103 103 103 104 105 106 108 109 110 110 110 110 110 109 108 107 106 105 104 102 100 98 97 95 93 91 88 86 84 81 78 76 75 73 72 69 66 64 62 61 60 60 58 56 52 46 40 39 41 42
77 78 80 81 82 82 83 84 85 85 86 86 87 88 89 90 91 92 93 94 95 96 96 97 98 98 98 99 100 101 101 101 101 100 101 102 103 103 105 106 108 110 112 112 112 112 111 110 109 107 105 103 101 99 97 95 93 91 89 87 85 83 80 78 75 73 71 71 69 67 64 62 59 58 58 57 56 54 50 47 44 42 43 46 47
79 80 81 81 82 83 84 84 85 85 86 87 88 88 89 90 90 91 92 93 94 95 96 96 97 98 99 100 101 101 101 100 100 100 101 103 105 106 107 109 110 111 112 111 111 109 108 106 103 101 99 96 95 93 91 89 87 85 83 81 79 77 74 72 70 68 68 66 64 62 60 57 55 54 53 52 51 50 47 45 43 43 43 44 45
79 80 81 82 83 83 84 84 85 85 86 87 87 88 89 89 90 91 92 93 94 95 96 97 98 99 100 101 101 101 100 100 100 101 103 105 107 108 109 110 110 110 109 107 105 103 100 98 96 94 92 90 88 87 85 83 81 79 76 74 73 71 69 67 66 65 64 62 60 57 55 53 52 50 48 47 46 45 43 41 40 40 39 39 39
79 80 81 81 82 82 82 83 84 84 85 86 86 87 88 89 90 91 92 93 94 95 96 96 97 99 100 101 102 102 102 102 103 104 106 107 109 110 110 109 107 105 103 100 98 96 94 92 90 88 86 84 83 81 79 77 75 73 71 69 68 66 65 63 62 60 59 58 56 53 51 49 47 45 44 43 42 41 40 39 37 37 35 35 34
79 80 80 81 81 81 82 83 84 84 85 86 87 88 88 89 90 91 92 93 93 94 95 97 98 100 102 103 104 105 105 105 105 107 108 108 109 109 108 105 103 100 98 97 95 93 90 88 85 83 82 80 78 76 74 72 70 68 66 65 64 62 60 58 57 56 55 54 52 50 47 44 42 40 39 39 38 38 37 36 35 35 34 33 33
79 80 80 80 81 82 83 84 85 86 86 87 87 88 89 89 90 89 90 92 94 95 97 98 100 102 104 105 107 108 108 107 106 107 107 107 107 107 105 103 100 98 97 96 95 92 88 85 82 81 79 77 75 72 70 68 66 64 63 62 60 58 56 54 52 52 51 51 49 46 42 38 37 37 37 37 36 35 35 34 33 32 32 32 32
79 80 81 81 82 83 84 85 86 86 87 87 87 87 87 88 89 90 90 92 94 97 99 101 102 104 105 105 106 107 107 107 106 106 105 104 103 103 103 102 101 98 97 96 95 92 88 84 82 79 78 75 72 69 66 64 63 62 60 59 57 54 51 50 49 48 48 47 46 42 38 36 36 37 36 35 34 33 32 31 31 30 30 30 30
79 80 81 82 83 84 84 85 85 86 86 86 87 87 87 88 89 91 93 94 95 97 99 100 102 103 104 104 104 105 105 105 105 105 104 103 102 101 101 101 100 99 97 96 95 92 89 86 82 79 77 73 69 65 63 61 60 59 58 56 53 50 48 47 45 45 45 44 41 38 35 35 36 36 35 33 32 30 29 29 29 29 28 29 29
80 81 82 83 83 83 84 84 84 85 86 87 88 90 91 91 92 93 94 96 96 97 97 97 99 100 101 102 103 103 103 103 104 104 105 104 103 102 101 100 99 98 97 96 95 92 89 86 82 78 74 70 65 62 60 59 58 56 54 51 48 46 45 44 43 43 42 39 37 35 34 34 35 35 33 31 29 28 28 28 28 28 28 29 29
81 82 82 82 82 82 83 84 85 86 88 89 91 92 94 95 95 95 94 94 94 94 94 95 96 97 98 99 101 103 104 104 104 105 105 105 104 103 102 100 98 97 96 95 93 90 87 83 79 74 70 65 61 58 57 56 54 52 49 46 44 43 42 41 40 39 36 34 33 34 33 33 33 33 30 28 28 28 28 28 27 27 28 29 29
81 81 81 81 82 83 84 86 87 89 90 91 92 93 93 94 94 94 94 94 94 93 93 93 94 96 97 98 100 102 104 105 105 105 104 104 104 103 102 101 98 96 94 92 90 86 81 77 73 68 63 59 56 55 53 51 49 46 44 42 40 39 37 36 35 33 32 31 31 31 29 29 29 29 28 28 28 28 27 26 27 28 29 29 28
80 81 82 83 84 86 87 88 89 90 90 91 91 91 91 91 91 91 92 93 93 93 93 93 94 96 97 99 100 101 103 104 105 105 104 103 103 102 102 99 96 93 90 86 82 78 73 69 65 60 56 53 52 50 48 45 43 41 39 37 35 34 32 31 29 29 29 29 29 28 27 27 27 28 28 28 27 26 26 27 28 29 28 25 23
81 83 84 85 86 87 87 88 88 88 88 87 87 87 87 87 87 88 88 89 90 92 93 94 95 96 97 99 101 102 102 102 103 104 103 102 101 99 97 94 90 86 82 77 73 68 64 59 55 52 49 48 46 43 41 39 37 35 33 31 29 28 27 27 27 27 27 27 27 27 27 26 27 28 29 27 26 26 28 29 28 26 23 21 21
84 84 85 85 86 85 85 85 85 84 84 83 83 83 83 83 83 84 85 87 89 91 93 95 96 97 99 100 102 103 102 102 102 103 102 99 95 91 86 82 78 75 71 67 63 59 55 50 47 45 43 41 38 36 34 32 30 28 27 26 26 26 27 27 27 27 27 27 27 26 25 26 27 28 27 26 26 28 28 26 23 21 20 20 21
84 84 84 83 83 82 82 81 81 80 80 79 79 79 79 80 81 83 85 87 89 91 93 95 97 99 101 102 104 104 104 102 101 99 95 89 83 78 72 68 65 63 60 56 54 51 47 43 41 39 36 33 31 29 27 26 25 25 25 25 25 26 27 27 27 27 27 26 25 24 26 27 27 27 26 27 28 27 24 21 20 20 21 21 21
81 81 80 80 79 79 78 77 77 76 76 76 76 77 78 80 81 83 85 87 89 92 94 96 99 101 103 105 106 106 104 101 96 89 81 75 69 65 61 58 56 53 51 49 46 44 41 38 36 32 29 27 26 24 23 22 23 23 24 24 25 25 26 27 27 26 24 23 23 24 26 27 27 27 27 27 25 21 19 19 20 21 21 21 21
77 77 76 75 75 74 73 73 73 73 73 74 76 77 79 81 82 84 86 88 91 93 96 98 101 103 105 106 106 104 99 92 83 74 67 62 59 56 54 52 50 48 45 43 41 39 37 33 29 26 24 24 23 21 20 21 22 22 23 23 24 24 25 24 22 20 19 20 23 25 26 26 26 26 24 21 19 18 19 20 20 20 20 20 20
73 72 71 71 70 70 69 70 70 72 73 75 77 78 80 82 84 86 88 90 93 95 98 100 103 105 106 104 99 93 85 77 69 64 59 55 52 49 48 47 46 44 42 41 39 36 32 27 23 21 21 20 18 18 19 21 21 22 22 22 23 23 22 19 16 16 18 21 23 24 24 24 22 20 19 18 19 19 20 20 20 20 20 20 20
69 68 67 67 67 67 67 68 70 72 74 76 78 80 83 84 86 88 90 92 95 97 99 102 104 104 100 93 84 77 71 66 62 58 54 50 47 45 43 42 42 41 41 39 36 32 27 22 19 18 17 16 16 18 20 20 21 20 20 19 18 17 16 15 15 17 19 21 22 22 21 20 18 18 18 19 19 19 20 20 20 20 20 20 20
65 65 64 64 65 66 67 69 71 73 75 78 80 82 85 86 87 89 92 94 96 99 102 103 102 96 87 77 70 66 63 60 57 54 50 47 44 41 39 39 39 39 39 37 33 27 23 21 18 16 16 16 17 19 19 20 19 18 16 14 13 13 14 15 17 19 20 20 20 19 18 18 18 19 19 20 20 20 20 20 20 20 20 21 22
63 62 63 63 65 66 68 70 72 74 76 79 81 84 86 86 88 90 93 95 97 100 102 100 93 84 74 67 63 61 58 55 52 50 47 44 41 38 37 36 36 36 36 33 27 22 20 19 17 16 17 17 18 19 19 18 16 14 13 12 12 13 15 16 18 19 19 19 19 18 18 19 19 20 20 20 20 20 20 20 21 21 22 22 24
61 62 63 65 66 68 70 71 73 75 77 79 82 84 85 86 88 91 93 95 98 101 99 92 83 74 67 62 59 56 53 50 48 46 44 41 38 36 35 34 34 33 31 26 21 19 18 17 16 17 18 18 18 18 17 15 14 13 12 12 13 14 15 16 18 18 19 19 18 18 18 19 19 20 20 20 21 21 21 22 22 23 23 24 25
62 64 65 66 67 69 70 71 73 75 77 80 82 83 84 86 89 91 93 96 99 99 92 83 74 68 63 59 55 52 49 47 45 42 41 38 36 35 33 32 31 29 25 20 18 18 17 16 16 17 18 18 18 16 15 14 13 12 13 13 14 15 16 17 18 18 18 18 18 18 19 19 20 21 21 22 22 22 23 23 24 24 25 26 27
64 65 66 67 68 69 70 72 73 76 78 80 82 82 84 87 89 91 93 97 98 93 84 76 70 65 60 56 52 48 46 43 41 40 38 37 35 33 32 30 28 24 20 18 18 18 16 15 16 18 19 18 17 15 14 13 13 13 14 15 16 16 17 17 18 18 18 19 19 19 19 20 21 22 22 23 24 24 24 25 26 26 27 27 28
65 66 67 68 69 70 71 72 74 76 78 80 81 82 84 87 89 90 94 96 92 85 77 72 67 62 57 53 48 45 42 40 39 39 38 35 31 30 30 28 24 20 19 20 19 17 15 15 17 19 19 18 17 15 14 13 14 14 15 16 17 17 18 18 18 19 19 19 19 20 20 21 22 23 24 24 25 25 26 27 27 27 28 28 29
66 67 68 68 69 70 71 73 75 76 78 79 80 82 85 87 88 91 93 92 85 78 73 68 64 58 53 49 45 41 40 39 39 38 36 30 27 28 29 26 21 20 21 21 18 16 15 16 18 19 19 18 17 16 15 14 15 16 17 17 18 18 19 19 19 19 20 20 20 20 21 22 23 24 25 25 26 27 27 27 27 27 28 29 30
66 67 68 69 69 70 72 74 75 76 78 79 80 82 85 86 88 91 90 85 78 73 70 65 60 55 49 44 41 39 38 38 37 35 31 27 26 27 27 23 21 21 22 20 17 15 15 17 18 19 18 18 17 16 15 15 16 17 18 18 19 19 20 20 20 20 20 20 21 22 23 24 24 25 26 26 27 27 27 27 27 28 29 30 31
67 68 68 69 69 70 72 74 75 76 77 79 80 83 84 86 89 90 86 79 73 69 66 61 57 51 46 42 39 37 37 37 34 31 30 28 27 27 25 22 22 22 21 19 17 15 16 18 18 18 18 18 17 16 16 17 17 18 19 19 20 20 20 21 21 21 22 22 23 24 24 25 25 26 26 26 27 27 28 28 29 30 31 32 33
Wind_Direction
272 274 275 276 277 278 279 280 281 282 284 285 286 287 288 288 288 289 289 290 290 290 291 292 292 293 294 294 294 294 294 295 295 295 296 296 297 297 297 298 298 298 298 298 298 298 298 298 298 297 297 296 296 295 294 293 293 293 293 294 295 296 296 296 297 298 299 298 297 297 297 297 297 296 296 296 295 295 295 295 295 295 295 296 297
274 276 277 278 279 279 280 281 282 283 285 286 286 287 287 287 288 288 289 289 290 291 291 292 293 293 294 294 294 294 294 294 294 295 295 295 296 296 296 297 297 297 297 297 297 298 298 298 297 296 295 295 295 294 293 293 293 294 294 295 295 296 296 296 297 298 298 298 297 297 297 296 296 296 296 296 295 295 294 294 294 294 294 294 294
276 277 278 279 279 280 281 282 283 284 285 285 286 286 287 288 288 289 290 290 291 292 292 293 293 293 293 293 293 293 293 294 294 294 294 295 295 295 296 296 296 296 296 296 296 296 296 296 295 295 294 294 294 294 294 294 294 295 295 295 295 296 296 296 297 298 298 298 297 297 297 296 296 295 295 295 294 294 294 294 293 293 293 293 293
277 277 278 279 279 281 282 283 284 284 285 286 287 288 288 289 290 291 291 292 292 292 292 293 293 293 293 293 293 293 293 293 294 294 294 295 295 295 296 296 296 296 296 296 295 295 295 295 295 295 294 294 295 294 294 294 294 294 295 295 295 296 296 296 297 297 298 298 297 296 296 295 295 295 295 294 294 294 293 293 293 292 292 292 291
277 278 279 280 281 282 283 284 285 286 287 288 289 289 290 290 291 291 292 292 292 292 293 293 293 293 294 294 294 294 294 294 294 295 295 295 295 296 296 296 295 295 295 294 294 294 294 294 294 294 294 294 294 293 293 293 293 294 294 295 295 295 296 296 296 296 297 297 297 296 296 295 295 295 295 295 294 294 293 293 292 291 291 290 289
280 281 281 282 283 284 285 286 287 288 288 289 289 289 290 290 291 291 291 292 292 293 293 293 294 294 294 294 294 295 295 295 295 295 295 295 295 295 294 294 293 293 293 293 293 293 293 293 293 293 293 293 293 293 293 293 294 294 294 295 295 295 295 295 296 295 296 296 297 297 296 296 296 296 295 295 294 294 293 292 291 290 289 288 288
281 282 283 284 284 285 286 287 288 288 288 288 289 289 290 290 291 291 292 292 292 293 293 293 293 294 294 294 294 294 294 295 295 294 294 294 293 293 292 292 292 291 292 292 292 293 293 293 293 293 293 293 293 293 293 293 293 294 294 294 294 294 295 295 295 295 295 295 296 297 296 296 295 295 295 294 294 293 292 291 290 289 288 288 287
281 281 282 284 285 286 286 287 287 287 288 288 289 290 290 290 291 291 291 291 292 292 292 292 292 292 293 293 294 294 295 295 294 294 293 293 293 292 292 292 292 292 292 292 292 293 293 293 293 293 294 294 294 294 293 293 293 294 294 294 294 294 294 295 295 295 295 295 296 296 296 295 295 295 294 294 293 292 291 290 289 288 288 286 286
281 282 283 284 285 285 286 286 287 288 288 289 289 289 289 289 290 290 290 290 291 291 291 290 291 292 293 294 295 295 295 295 294 294 294 293 293 293 293 293 293 293 293 294 294 294 295 295 295 295 295 295 295 295 294 294 294 295 295 295 295 295 296 296 296 297 296 296 296 296 296 296 296 295 294 293 292 291 290 289 289 288 287 286 285
283 284 285 285 285 286 286 287 287 288 288 288 288 288 288 289 289 290 290 290 290 290 290 291 293 294 296 296 297 297 296 296 295 295 295 295 295 295 295 295 295 295 296 296 296 296 296 296 296 296 296 296 296 296 296 296 296 296 297 297 297 297 297 298 298 297 297 296 297 297 296 296 296 294 293 293 292 291 290 289 288 287 286 286 285
285 285 286 286 286 287 287 287 288 288 287 287 288 288 289 289 290 290 290 290 290 291 293 295 297 298 299 299 299 298 297 296 296 296 296 296 296 296 296 296 296 296 297 297 297 297 297 297 297 297 297 297 296 296 296 296 296 296 297 297 297 297 298 298 298 297 296 296 296 295 295 295 294 293 292 292 291 290 289 288 287 287 286 285 284
285 285 286 286 286 287 287 287 287 287 287 287 288 289 289 290 290 291 290 291 291 292 294 296 297 298 298 298 298 297 296 296 296 296 296 296 296 296 297 297 297 297 298 298 298 298 297 297 297 297 297 297 296 296 296 295 295 296 296 296 297 297 297 297 297 296 295 294 294 294 294 294 293 292 292 291 290 289 288 287 286 286 285 284 283
284 284 285 285 286 286 286 286 286 287 287 288 289 290 290 290 290 290 290 290 290 292 293 294 295 296 296 296 296 296 296 296 296 297 297 297 297 298 298 298 298 298 298 298 298 298 298 297 297 297 297 296 296 296 295 295 295 295 296 296 296 296 296 296 296 295 294 293 293 293 293 292 292 292 291 289 289 288 287 286 285 284 283 283 282
283 284 284 285 285 285 286 286 287 288 289 289 289 289 289 290 290 290 289 290 290 291 293 294 295 295 296 296 296 297 297 298 298 298 299 299 299 299 299 299 299 299 299 299 298 298 298 298 298 297 297 296 296 296 296 296 296 296 296 296 296 296 296 295 295 294 293 293 293 293 293 292 291 291 290 289 288 288 286 285 284 283 282 282 282
284 284 285 285 285 285 285 286 287 288 288 288 288 289 289 290 290 290 290 290 291 292 293 294 295 296 296 297 297 298 299 300 300 300 300 300 300 300 300 300 300 300 300 299 299 299 299 298 298 298 298 297 297 296 296 296 296 296 296 296 296 296 296 295 294 293 293 293 293 293 293 292 291 291 290 289 288 287 285 284 283 283 282 282 282
284 284 284 284 284 285 285 286 286 287 287 287 288 289 289 290 290 290 291 291 292 293 294 295 296 297 297 298 299 299 300 301 300 300 300 300 300 300 300 300 300 300 300 299 299 299 299 299 299 298 298 298 297 296 296 296 296 296 296 296 296 296 296 296 294 293 293 293 293 294 293 293 292 291 290 289 288 287 285 284 283 283 283 282 282
283 284 284 284 284 285 285 285 285 286 286 287 288 289 289 290 290 290 291 292 293 294 295 296 297 297 298 299 299 300 300 300 300 300 300 300 299 299 299 299 299 299 299 299 299 299 299 299 299 298 298 297 297 296 296 296 296 297 297 297 297 297 297 296 295 294 294 294 294 294 293 293 292 291 290 290 288 286 286 285 284 283 283 282 283
283 284 284 284 285 285 285 285 285 285 286 287 288 289 289 290 290 291 292 293 294 295 295 296 297 298 298 299 299 300 300 300 300 300 300 300 300 300 300 300 300 300 299 300 300 300 299 299 298 298 298 298 298 297 297 297 298 298 298 298 298 298 298 296 295 294 294 294 294 293 293 292 292 291 290 289 287 286 286 285 284 283 283 283 283
283 284 284 284 284 284 284 285 285 286 287 288 289 289 290 291 292 292 293 294 295 295 296 296 297 298 298 299 300 300 300 300 300 300 300 300 300 300 300 300 299 299 299 299 298 298 298 298 298 298 298 298 298 298 298 298 298 298 298 298 298 298 297 295 295 294 294 294 293 293 292 292 291 291 290 288 287 286 285 284 284 284 283 283 284
283 283 284 284 284 285 285 286 286 287 288 288 289 290 291 292 292 293 294 295 296 296 297 297 297 298 299 299 300 300 300 300 300 300 301 301 300 300 299 299 298 298 297 297 297 297 297 297 297 298 298 298 298 298 298 298 297 297 297 297 297 297 296 295 294 294 294 293 293 292 292 291 290 290 288 287 286 285 284 284 284 283 283 284 284
282 283 284 284 285 285 286 286 287 288 288 289 290 291 292 293 293 294 295 296 296 297 297 298 298 298 299 299 300 300 300 300 301 300 300 300 299 299 298 298 298 298 298 298 298 298 298 298 298 298 297 297 297 297 297 296 296 296 296 296 296 296 295 294 294 294 293 293 292 291 291 290 289 288 287 286 285 284 284 284 284 284 285 286 283
282 283 284 284 285 286 287 287 288 289 290 291 291 292 293 294 295 296 296 297 297 297 298 298 298 299 299 299 300 300 300 300 300 299 299 298 298 298 298 298 299 299 300 300 300 300 299 299 298 298 297 296 296 296 295 295 295 295 295 295 295 295 295 294 294 294 293 292 291 290 289 288 287 286 285 284 284 284 284 285 285 285 285 283 282
283 283 284 285 286 287 288 289 290 291 292 292 293 294 294 295 296 296 297 297 297 298 298 298 298 299 299 299 299 298 298 298 298 297 297 297 298 298 299 299 300 300 300 300 300 300 299 298 298 297 296 296 296 295 295 295 295 296 295 295 295 295 295 294 294 293 292 290 290 289 288 287 286 284 284 283 283 284 284 284 282 277 269 265 268
283 284 285 286 287 288 289 290 291 292 293 293 294 294 295 295 296 296 297 297 298 298 298 298 298 298 297 297 297 297 296 297 297 297 298 298 298 299 300 300 300 300 300 300 299 299 298 298 297 297 297 297 296 296 296 297 297 296 296 296 296 295 295 294 293 292 290 289 288 288 287 286 284 283 283 283 283 284 283 282 278 272 267 264 265
285 286 287 288 289 289 290 291 292 292 293 293 294 294 294 295 296 296 297 297 297 297 297 297 297 297 297 297 296 296 296 297 298 298 299 299 299 300 300 300 300 299 299 299 299 299 298 298 298 298 298 298 298 298 298 298 298 298 297 297 296 295 294 292 291 290 289 288 287 287 286 285 283 282 282 282 283 283 282 281 279 275 273 271 270
286 287 288 288 289 289 290 290 291 292 292 293 293 294 294 295 296 296 296 296 296 296 296 296 297 297 297 297 297 297 297 298 299 299 299 299 300 300 300 300 299 299 299 299 299 298 298 299 299 300 300 300 300 300 299 299 298 298 297 296 295 293 292 290 289 288 287 287 286 286 285 284 283 282 282 281 280 280 280 279 278 276 276 275 276
287 287 287 287 288 289 289 290 291 291 292 292 293 294 294 295 295 295 295 295 296 296 297 297 298 298 298 298 298 298 298 299 300 300 300 300 300 300 300 300 300 299 299 299 299 298 299 300 300 301 301 300 300 300 300 299 298 297 296 294 293 291 290 289 288 287 286 286 285 285 284 284 283 283 281 279 278 277 277 277 277 278 279 280 280
286 286 287 287 288 289 290 290 291 291 292 292 293 293 294 294 295 295 296 296 297 297 298 298 298 298 298 298 299 299 299 300 300 301 301 301 301 301 301 300 300 300 300 300 299 299 300 301 301 301 300 300 300 300 300 299 298 296 294 293 291 290 290 288 287 286 286 285 285 285 284 284 284 283 281 279 278 277 275 275 276 277 278 277 273
286 287 288 288 289 289 290 290 291 291 292 292 292 293 294 294 295 295 296 297 298 298 298 298 298 299 299 299 299 300 300 301 301 301 301 302 302 302 302 301 301 301 301 301 301 301 301 301 301 300 300 300 300 300 299 298 297 295 294 293 292 290 289 287 285 285 284 284 285 285 285 285 285 284 281 278 276 274 272 271 271 271 269 266 262
287 287 288 288 288 289 289 290 290 291 291 292 292 293 294 294 295 296 297 297 298 298 299 299 299 299 299 299 300 300 301 301 302 302 302 302 302 302 302 302 303 303 303 302 302 302 302 302 301 301 300 300 300 300 299 298 296 295 294 293 291 290 288 285 284 283 283 283 284 285 284 283 283 281 278 275 272 269 268 267 265 263 261 258 255
286 286 287 287 288 289 289 290 291 291 292 292 293 293 294 295 296 297 297 297 297 298 298 298 299 299 299 299 300 300 301 302 302 303 303 303 302 302 302 303 303 303 303 302 302 302 302 301 301 300 299 299 299 299 298 296 295 294 293 292 291 288 285 283 282 281 281 282 283 284 282 280 278 276 273 271 270 268 266 264 262 259 256 254 251
285 286 287 288 288 289 290 291 291 292 293 293 294 295 295 295 295 296 296 297 297 298 298 298 299 299 300 300 300 301 301 302 302 303 303 303 303 303 303 303 303 303 302 301 301 300 300 299 299 298 297 297 297 296 295 294 293 293 293 291 289 285 283 281 280 280 280 281 283 282 280 277 275 272 269 267 267 266 264 261 258 255 252 250 248
286 287 288 289 290 291 291 292 293 293 294 294 295 296 296 296 296 296 296 296 297 297 298 298 298 299 299 300 301 302 302 303 303 303 303 303 303 304 303 303 303 302 301 299 298 298 297 297 296 295 295 295 294 293 292 292 292 292 291 289 286 283 281 280 279 280 281 282 280 278 275 272 270 268 267 266 265 263 259 256 253 250 247 245 245
288 289 290 290 291 292 292 293 294 294 295 295 296 296 297 297 297 297 297 297 297 297 297 298 299 299 300 300 301 302 303 303 303 303 304 304 304 304 303 303 302 300 298 296 296 295 295 294 294 293 293 292 290 290 290 290 290 289 288 285 282 280 279 279 279 279 278 275 271 269 268 267 266 265 266 265 263 259 255 251 248 245 244 245 246
289 290 291 291 292 292 293 294 294 295 295 296 296 296 297 297 297 298 298 298 298 298 298 299 299 300 301 301 301 302 302 303 304 304 304 304 304 303 302 301 300 298 296 295 295 294 294 293 292 291 290 289 288 288 288 288 288 286 284 283 281 280 279 278 276 272 268 266 266 265 265 265 265 264 263 261 258 253 249 245 244 245 245 246 246
290 290 291 292 292 293 293 294 294 295 295 296 296 297 297 297 298 298 298 299 300 300 301 301 301 301 302 302 303 303 304 304 305 305 305 305 304 302 301 299 298 297 295 295 294 294 293 292 291 290 288 287 287 287 287 287 285 283 281 278 276 273 270 267 265 264 265 268 271 271 268 265 263 262 260 256 250 245 243 243 244 245 244 244 245
290 290 291 291 292 293 293 294 294 295 295 295 296 296 297 297 298 299 300 300 301 302 302 302 303 303 303 304 305 305 306 306 307 306 306 305 303 301 300 299 298 297 296 295 294 293 292 291 290 288 287 287 287 287 286 283 279 274 270 267 263 261 260 260 262 265 270 273 276 276 272 266 262 259 255 248 243 241 241 242 242 242 242 245 249
289 290 291 291 292 292 293 293 294 294 295 295 296 296 297 298 299 300 301 302 302 303 304 305 305 306 306 307 307 308 308 308 308 307 305 304 302 301 300 299 298 297 296 295 293 291 291 290 288 287 287 286 285 281 276 270 265 263 261 261 261 261 262 264 268 272 274 275 276 274 268 263 258 253 246 241 240 240 241 241 241 243 246 249 252
289 290 291 291 292 292 292 293 294 294 295 295 296 297 298 299 300 301 302 303 304 305 306 307 308 308 309 310 310 310 309 309 308 306 304 303 302 301 300 299 297 295 294 292 291 290 289 288 286 285 283 277 271 266 263 261 261 262 263 264 266 267 268 270 272 273 274 273 271 268 264 259 253 247 243 241 240 240 240 242 244 247 250 253 256
289 290 290 291 291 292 292 293 294 294 295 295 297 298 299 301 302 303 304 305 306 307 308 309 311 311 312 312 312 311 310 309 307 306 305 304 303 301 299 297 295 294 292 290 289 288 287 286 283 277 268 260 257 258 262 265 267 267 269 271 272 273 272 272 271 272 272 272 270 266 260 254 248 245 243 243 242 242 242 244 246 249 253 258 264
288 289 289 290 291 292 292 293 293 294 295 296 298 299 301 303 304 305 306 307 309 310 311 313 314 314 314 313 312 311 310 309 308 307 306 305 303 300 298 296 294 293 291 289 288 287 286 280 271 261 255 254 258 264 268 271 272 274 275 275 274 272 270 268 268 271 272 269 264 258 253 249 247 246 245 244 244 244 246 248 251 255 260 265 270
287 288 289 290 291 291 292 292 293 294 296 298 299 301 302 304 305 306 308 310 311 313 314 315 316 316 315 314 312 311 310 310 309 308 307 305 303 300 298 295 293 292 290 289 289 288 281 267 255 253 257 262 267 271 273 275 276 277 276 274 271 270 268 266 264 263 261 256 251 249 248 248 248 247 245 245 246 248 250 253 257 261 266 270 273
287 288 288 289 290 290 291 292 294 295 297 299 300 302 303 304 306 308 310 312 314 316 317 318 318 317 315 314 312 312 311 311 310 308 307 305 303 300 297 295 293 292 290 290 290 285 272 257 253 260 267 269 271 273 276 277 276 273 271 269 270 272 272 268 262 258 255 252 250 250 250 249 247 246 246 247 249 251 254 259 263 266 270 273 275
286 287 287 288 289 290 292 293 295 297 298 300 301 303 304 305 307 310 312 314 316 318 319 319 318 317 315 314 313 313 312 311 309 308 307 305 303 300 297 295 293 291 291 291 288 278 265 257 258 264 269 269 271 273 274 271 267 263 263 267 271 272 270 265 262 259 257 254 252 251 249 248 247 248 249 251 254 258 262 265 268 270 273 275 276
285 286 287 288 290 292 294 295 297 299 300 301 303 304 305 306 309 312 314 316 318 319 320 319 318 316 315 315 314 313 312 310 309 308 306 304 302 300 297 295 293 292 292 289 281 272 265 260 260 263 267 269 269 267 264 259 255 255 261 267 268 266 262 259 256 254 252 249 248 247 248 248 249 251 254 257 261 264 266 269 271 272 274 275 277
285 286 288 290 292 294 296 297 299 301 302 303 304 305 306 308 311 313 315 317 319 320 320 318 317 316 316 315 313 312 311 311 309 307 306 304 302 300 298 295 294 292 287 280 274 271 266 261 259 263 266 267 263 257 251 248 248 252 257 260 261 258 255 252 251 248 246 245 244 245 246 249 252 255 258 261 264 267 269 271 272 273 274 276 277
286 288 289 291 293 295 297 299 300 302 303 304 306 306 308 310 312 314 316 318 320 320 319 317 317 317 316 315 313 311 311 310 309 308 306 304 303 301 300 297 293 287 279 272 271 269 261 257 261 265 265 261 253 246 243 243 245 249 252 254 254 252 249 247 246 244 244 245 246 248 251 253 256 259 262 265 268 270 271 271 272 273 275 276 278
287 289 291 292 294 296 297 299 300 302 304 305 306 307 309 311 313 315 317 319 319 319 318 317 317 317 316 314 312 311 310 310 310 309 307 304 303 303 302 298 289 279 274 271 266 257 250 256 265 266 260 253 245 240 240 242 244 246 248 249 249 249 247 246 245 245 246 248 250 253 256 259 262 265 267 269 270 270 271 271 272 273 274 276 279
289 290 292 293 294 296 298 299 301 303 305 306 307 308 310 312 314 316 318 319 318 317 317 316 316 316 315 313 311 311 311 311 310 308 305 302 301 303 302 294 280 273 273 268 254 242 245 259 266 263 254 246 241 240 242 244 246 248 248 248 247 247 247 247 248 249 251 253 255 258 261 264 267 269 270 271 271 271 271 271 272 274 276 279 282
291 292 293 294 295 297 298 300 302 304 305 306 307 309 312 313 315 317 318 318 317 316 316 316 316 315 313 312 310 310 310 311 310 307 303 300 301 303 299 289 276 273 270 257 239 235 249 262 265 259 250 244 242 243 245 248 250 251 250 249 249 249 249 249 250 252 253 256 259 262 265 268 270 272 274 274 274 273 273 273 275 277 279 282 284
291 292 293 294 296 297 299 301 303 304 305 306 308 311 312 314 316 317 317 316 315 315 315 314 314 313 311 310 309 308 308 309 308 305 302 301 302 301 296 287 279 273 262 243 230 238 255 263 263 257 249 245 246 247 249 251 252 253 253 253 252 252 252 252 253 256 258 261 263 265 268 271 274 276 277 276 275 275 275 275 276 278 280 282 284
Height
5811 5811 5810 5810 5809 5809 5808 5807 5806 5805 5803 5802 5800 5799 5798 5796 5795 5793 5792 5790 5788 5786 5784 5782 5780 5777 5775 5773 5770 5768 5765 5762 5760 5758 5755 5753 5751 5748 5746 5743 5741 5739 5736 5734 5730 5727 5725 5723 5720 5716 5713 5710 5708 5704 5701 5698 5694 5692 5688 5684 5682 5678 5672 5668 5664 5667 5677 5678 5668 5664 5664 5659 5657 5656 5652 5649 5647 5643 5640 5637 5634 5630 5625 5622 5618
5806 5806 5806 5805 5804 5803 5802 5801 5800 5799 5797 5796 5794 5793 5792 5790 5789 5787 5786 5784 5782 5780 5777 5775 5773 5770 5768 5765 5763 5760 5757 5755 5752 5750 5748 5746 5743 5741 5738 5736 5734 5732 5729 5726 5723 5720 5718 5715 5712 5708 5705 5703 5701 5697 5694 5691 5687 5684 5682 5677 5674 5672 5665 5659 5656 5655 5661 5668 5662 5654 5653 5651 5648 5646 5643 5639 5637 5633 5630 5627 5624 5620 5617 5613 5609
5801 5801 5800 5799 5798 5797 5796 5795 5794 5793 5791 5790 5789 5787 5786 5784 5782 5780 5779 5777 5775 5772 5770 5768 5765 5763 5761 5758 5755 5753 5750 5748 5745 5743 5741 5739 5736 5734 5731 5729 5727 5724 5722 5719 5716 5713 5710 5708 5705 5701 5698 5696 5693 5689 5685 5683 5679 5675 5674 5670 5665 5664 5659 5651 5648 5645 5646 5654 5655 5647 5641 5640 5638 5636 5633 5630 5626 5623 5620 5617 5613 5610 5607 5603 5600
5796 5795 5794 5793 5792 5791 5790 5789 5788 5787 5785 5784 5782 5780 5779 5777 5775 5773 5771 5769 5767 5765 5762 5760 5758 5755 5753 5750 5748 5745 5742 5740 5738 5735 5733 5731 5729 5727 5724 5721 5719 5716 5714 5711 5708 5706 5703 5700 5697 5693 5690 5688 5686 5682 5678 5675 5672 5668 5666 5662 5657 5654 5651 5644 5639 5636 5633 5637 5643 5639 5631 5628 5628 5625 5622 5619 5616 5612 5609 5607 5603 5599 5596 5593 5589
5790 5789 5788 5787 5786 5785 5784 5782 5781 5779 5778 5776 5775 5773 5771 5769 5767 5765 5763 5761 5759 5757 5754 5752 5749 5747 5744 5742 5739 5737 5734 5732 5730 5728 5726 5723 5721 5719 5717 5714 5712 5709 5706 5703 5700 5697 5695 5692 5689 5685 5682 5680 5678 5674 5670 5667 5663 5660 5657 5654 5649 5645 5642 5638 5631 5627 5623 5623 5628 5629 5623 5617 5616 5614 5611 5607 5604 5601 5598 5596 5592 5589 5586 5582 5578
5783 5782 5781 5780 5779 5778 5776 5775 5773 5772 5770 5769 5767 5766 5764 5762 5760 5757 5755 5753 5751 5748 5746 5744 5741 5739 5736 5734 5732 5729 5727 5725 5723 5720 5718 5716 5714 5712 5709 5707 5704 5702 5699 5696 5693 5690 5687 5684 5681 5678 5674 5672 5670 5666 5662 5658 5654 5652 5648 5644 5641 5636 5632 5630 5624 5618 5615 5612 5612 5614 5612 5607 5603 5601 5600 5596 5592 5589 5587 5584 5581 5578 5574 5571 5568
5777 5775 5774 5773 5772 5770 5769 5768 5766 5765 5763 5761 5760 5758 5756 5754 5752 5749 5747 5745 5743 5740 5738 5736 5734 5732 5729 5727 5725 5722 5719 5717 5715 5713 5710 5708 5706 5704 5702 5699 5697 5694 5691 5688 5685 5682 5679 5676 5673 5670 5666 5663 5660 5656 5652 5649 5645 5643 5639 5634 5631 5627 5623 5620 5615 5609 5605 5602 5601 5600 5599 5597 5593 5589 5588 5585 5581 5578 5575 5571 5568 5566 5563 5560 5557
5770 5769 5768 5767 5765 5764 5762 5760 5759 5757 5755 5754 5752 5750 5748 5746 5744 5742 5739 5737 5735 5733 5731 5729 5726 5724 5722 5720 5717 5714 5712 5709 5706 5704 5702 5700 5698 5696 5694 5691 5689 5687 5684 5681 5678 5674 5671 5668 5665 5661 5657 5653 5650 5646 5642 5638 5634 5633 5630 5624 5619 5617 5613 5609 5605 5600 5595 5591 5590 5589 5586 5584 5582 5578 5575 5573 5569 5566 5563 5558 5555 5554 5552 5548 5545
5763 5762 5761 5760 5758 5757 5755 5753 5751 5749 5747 5746 5744 5742 5740 5738 5736 5734 5732 5730 5728 5726 5724 5722 5719 5717 5715 5712 5710 5706 5703 5700 5697 5695 5693 5691 5689 5687 5685 5682 5679 5677 5675 5672 5669 5665 5662 5659 5655 5651 5647 5644 5639 5635 5631 5627 5622 5620 5619 5614 5608 5604 5601 5598 5593 5589 5584 5579 5578 5576 5573 5571 5570 5565 5562 5561 5557 5553 5550 5546 5543 5541 5538 5536 5534
5755 5754 5753 5752 5750 5749 5747 5745 5743 5741 5739 5737 5736 5734 5732 5730 5728 5726 5724 5722 5720 5718 5716 5713 5711 5709 5707 5704 5701 5698 5694 5690 5687 5685 5682 5680 5678 5677 5675 5672 5669 5666 5664 5662 5659 5656 5652 5649 5646 5641 5637 5633 5629 5624 5620 5616 5611 5608 5605 5602 5596 5591 5588 5585 5581 5577 5571 5567 5566 5564 5560 5559 5558 5553 5549 5549 5544 5540 5538 5534 5530 5527 5525 5523 5521
5747 5746 5744 5743 5742 5740 5738 5736 5734 5733 5731 5729 5727 5725 5723 5722 5719 5717 5715 5713 5711 5709 5706 5704 5702 5699 5697 5694 5692 5689 5685 5681 5677 5675 5672 5669 5667 5666 5665 5662 5660 5656 5654 5651 5649 5646 5642 5638 5635 5631 5626 5622 5618 5613 5610 5605 5601 5597 5594 5590 5585 5580 5575 5571 5569 5565 5559 5554 5553 5553 5548 5546 5545 5541 5537 5535 5532 5528 5526 5522 5518 5515 5513 5511 5509
5739 5737 5736 5734 5733 5731 5729 5728 5726 5724 5722 5720 5719 5717 5715 5713 5711 5709 5707 5704 5702 5700 5698 5696 5693 5690 5689 5686 5684 5681 5677 5673 5669 5666 5663 5660 5656 5655 5655 5652 5649 5647 5643 5640 5637 5634 5631 5628 5625 5620 5615 5610 5606 5602 5598 5595 5591 5587 5584 5581 5576 5571 5565 5559 5554 5551 5546 5541 5540 5540 5538 5533 5531 5529 5525 5521 5519 5516 5513 5511 5507 5503 5500 5498 5496
5731 5729 5728 5726 5724 5722 5720 5719 5717 5715 5714 5712 5710 5708 5706 5704 5702 5701 5699 5697 5695 5693 5690 5688 5685 5683 5680 5678 5676 5674 5669 5664 5661 5657 5653 5650 5646 5644 5643 5641 5638 5636 5632 5628 5625 5621 5618 5615 5613 5610 5604 5598 5594 5590 5586 5583 5580 5577 5574 5570 5567 5562 5556 5549 5543 5537 5532 5528 5526 5527 5526 5520 5516 5516 5514 5508 5505 5503 5501 5498 5495 5491 5489 5486 5484
5722 5720 5719 5717 5715 5713 5712 5710 5708 5706 5705 5703 5701 5699 5697 5696 5694 5693 5691 5689 5687 5685 5682 5680 5677 5673 5671 5669 5667 5665 5660 5655 5651 5647 5642 5639 5635 5632 5631 5629 5627 5624 5621 5616 5613 5610 5606 5602 5600 5598 5594 5588 5582 5577 5573 5570 5567 5565 5562 5558 5555 5551 5546 5540 5533 5525 5519 5515 5511 5511 5513 5509 5503 5502 5501 5496 5493 5491 5488 5485 5482 5479 5477 5475 5473
5713 5711 5710 5708 5707 5705 5703 5701 5699 5698 5696 5694 5692 5691 5689 5687 5686 5684 5683 5681 5678 5676 5673 5671 5668 5664 5661 5658 5656 5655 5651 5644 5639 5635 5631 5626 5623 5620 5618 5616 5614 5612 5609 5605 5600 5597 5594 5590 5587 5584 5581 5577 5570 5563 5558 5554 5552 5551 5549 5546 5542 5539 5535 5529 5522 5515 5509 5503 5498 5496 5497 5496 5491 5488 5486 5483 5480 5478 5475 5472 5470 5467 5465 5463 5463
5704 5703 5701 5700 5698 5696 5694 5693 5691 5689 5688 5686 5684 5682 5680 5678 5676 5675 5674 5671 5669 5666 5664 5661 5658 5654 5651 5647 5644 5644 5642 5634 5627 5623 5620 5614 5610 5608 5605 5603 5602 5600 5597 5594 5589 5586 5583 5578 5573 5570 5567 5564 5558 5551 5545 5539 5536 5536 5534 5532 5529 5526 5522 5517 5509 5502 5497 5492 5487 5484 5482 5481 5478 5475 5473 5471 5468 5464 5462 5460 5458 5456 5454 5452 5451
5695 5694 5692 5691 5689 5688 5686 5685 5683 5681 5680 5678 5676 5673 5671 5669 5667 5666 5664 5662 5660 5657 5654 5651 5648 5644 5640 5636 5633 5632 5631 5626 5618 5612 5609 5604 5598 5596 5594 5590 5589 5587 5585 5582 5578 5574 5571 5567 5560 5555 5553 5550 5545 5539 5532 5525 5520 5519 5517 5515 5514 5511 5509 5503 5496 5490 5486 5481 5477 5474 5470 5468 5465 5462 5460 5459 5455 5452 5450 5448 5446 5444 5442 5441 5440
5687 5685 5684 5682 5681 5679 5678 5676 5675 5673 5671 5669 5667 5664 5662 5660 5657 5655 5653 5652 5649 5646 5643 5641 5639 5635 5630 5626 5622 5620 5619 5617 5610 5602 5598 5593 5587 5583 5580 5577 5575 5573 5571 5569 5566 5562 5558 5554 5548 5541 5536 5534 5530 5524 5518 5511 5504 5502 5499 5497 5496 5497 5494 5488 5482 5478 5475 5470 5466 5462 5458 5455 5452 5450 5448 5447 5443 5441 5439 5436 5434 5433 5431 5430 5430
5678 5677 5675 5674 5672 5670 5669 5667 5666 5664 5662 5659 5657 5654 5652 5650 5647 5645 5642 5640 5638 5635 5632 5629 5628 5626 5621 5615 5611 5608 5605 5604 5600 5592 5585 5581 5575 5569 5564 5562 5560 5558 5556 5555 5553 5549 5545 5540 5535 5528 5520 5516 5513 5509 5504 5497 5489 5485 5483 5479 5479 5480 5478 5471 5467 5466 5463 5458 5455 5451 5447 5443 5440 5437 5436 5434 5431 5430 5427 5425 5423 5422 5420 5420 5419
5670 5668 5666 5665 5663 5661 5660 5658 5656 5654 5652 5650 5647 5644 5642 5640 5637 5634 5631 5628 5626 5623 5620 5617 5615 5615 5612 5605 5601 5597 5592 5589 5588 5582 5574 5568 5562 5555 5550 5547 5544 5541 5541 5540 5537 5535 5532 5527 5522 5516 5508 5501 5497 5494 5489 5483 5476 5471 5468 5464 5462 5462 5461 5456 5453 5452 5448 5446 5443 5439 5436 5433 5429 5426 5424 5422 5420 5419 5416 5414 5413 5412 5410 5410 5410
5662 5660 5658 5656 5654 5652 5650 5648 5646 5644 5642 5640 5638 5634 5631 5629 5626 5623 5620 5617 5614 5611 5608 5604 5602 5602 5601 5596 5590 5586 5581 5576 5574 5570 5564 5557 5550 5543 5537 5533 5529 5524 5523 5523 5520 5517 5515 5512 5508 5503 5495 5488 5483 5479 5474 5469 5463 5457 5454 5451 5447 5445 5444 5441 5440 5438 5434 5432 5429 5426 5424 5421 5418 5415 5413 5410 5409 5408 5406 5405 5404 5402 5402 5401 5401
5653 5652 5650 5647 5645 5643 5641 5638 5636 5634 5631 5629 5627 5624 5620 5617 5614 5611 5608 5605 5602 5599 5596 5592 5589 5588 5588 5585 5580 5575 5569 5565 5562 5558 5552 5546 5540 5533 5525 5521 5516 5509 5505 5505 5503 5499 5496 5493 5491 5487 5481 5475 5469 5464 5459 5455 5449 5444 5441 5437 5433 5430 5428 5426 5425 5424 5421 5418 5415 5413 5411 5409 5407 5405 5402 5400 5399 5398 5396 5395 5394 5394 5395 5394 5394
5645 5643 5641 5638 5636 5633 5631 5628 5625 5623 5620 5618 5616 5613 5609 5606 5603 5599 5596 5593 5590 5587 5584 5579 5576 5574 5574 5572 5569 5564 5559 5555 5552 5547 5540 5533 5528 5522 5515 5508 5503 5497 5490 5487 5485 5482 5479 5476 5472 5468 5464 5459 5454 5448 5444 5441 5436 5431 5427 5423 5420 5416 5414 5411 5411 5409 5407 5404 5402 5401 5399 5398 5396 5394 5392 5391 5390 5388 5387 5386 5386 5388 5389 5388 5388
5636 5634 5631 5629 5626 5623 5620 5618 5615 5612 5609 5607 5604 5601 5598 5595 5592 5588 5584 5580 5577 5574 5571 5567 5563 5561 5559 5558 5557 5554 5549 5544 5541 5536 5528 5520 5515 5511 5504 5498 5491 5484 5477 5473 5469 5464 5461 5458 5454 5450 5447 5443 5437 5433 5430 5426 5422 5418 5414 5410 5406 5403 5400 5398 5397 5395 5393 5391 5390 5389 5388 5387 5385 5384 5383 5382 5381 5380 5379 5379 5379 5379 5380 5380 5380
5627 5624 5621 5619 5616 5613 5611 5608 5605 5601 5598 5595 5593 5590 5587 5584 5581 5577 5573 5569 5565 5561 5558 5555 5550 5547 5544 5542 5542 5540 5537 5532 5529 5524 5516 5507 5502 5498 5493 5486 5479 5472 5465 5460 5455 5450 5445 5441 5438 5435 5432 5427 5422 5418 5416 5413 5409 5405 5401 5397 5393 5391 5388 5385 5384 5383 5381 5380 5379 5378 5377 5376 5375 5374 5374 5373 5372 5372 5371 5371 5371 5371 5371 5371 5372
5617 5614 5611 5609 5606 5603 5601 5598 5594 5591 5588 5584 5581 5579 5576 5573 5570 5567 5561 5557 5553 5549 5545 5541 5537 5533 5529 5527 5525 5523 5522 5520 5516 5511 5503 5495 5489 5484 5479 5473 5466 5459 5453 5448 5442 5437 5433 5428 5425 5422 5418 5414 5409 5404 5402 5400 5397 5393 5389 5386 5382 5379 5376 5374 5372 5371 5370 5369 5369 5368 5367 5367 5366 5365 5365 5365 5365 5365 5364 5364 5364 5364 5364 5364 5364
5607 5604 5601 5598 5596 5593 5591 5588 5585 5581 5578 5574 5571 5568 5564 5561 5558 5555 5550 5544 5541 5537 5533 5528 5524 5519 5514 5512 5510 5507 5506 5505 5501 5495 5489 5483 5475 5469 5464 5459 5452 5445 5441 5436 5430 5425 5422 5419 5415 5410 5406 5402 5397 5393 5390 5387 5384 5381 5378 5374 5371 5368 5366 5364 5362 5361 5360 5360 5359 5359 5358 5358 5357 5357 5357 5357 5358 5358 5358 5358 5357 5357 5357 5357 5358
5597 5594 5591 5588 5585 5583 5580 5577 5574 5571 5568 5565 5561 5558 5554 5550 5547 5544 5538 5532 5528 5525 5521 5516 5511 5505 5500 5497 5494 5490 5489 5489 5485 5478 5472 5467 5460 5452 5448 5444 5438 5431 5427 5421 5416 5412 5411 5408 5404 5400 5394 5390 5386 5383 5379 5376 5373 5370 5367 5364 5361 5359 5356 5355 5353 5352 5351 5351 5350 5350 5350 5350 5350 5350 5350 5350 5351 5351 5351 5351 5351 5351 5351 5351 5352
5586 5583 5581 5578 5575 5572 5569 5566 5563 5560 5557 5554 5551 5548 5544 5539 5536 5534 5529 5522 5515 5511 5508 5504 5499 5491 5486 5483 5478 5472 5471 5472 5470 5464 5458 5452 5444 5435 5428 5425 5422 5417 5412 5405 5399 5398 5398 5396 5392 5387 5383 5379 5376 5373 5369 5366 5363 5360 5357 5354 5352 5350 5348 5346 5345 5344 5343 5342 5342 5342 5343 5343 5343 5343 5343 5344 5344 5344 5345 5345 5345 5345 5345 5345 5346
5576 5573 5570 5568 5565 5562 5559 5556 5553 5549 5546 5543 5541 5538 5535 5530 5525 5521 5519 5515 5508 5501 5494 5490 5486 5479 5473 5470 5466 5458 5453 5451 5450 5447 5444 5440 5433 5424 5415 5408 5404 5402 5398 5391 5384 5383 5383 5381 5379 5375 5370 5367 5365 5362 5359 5356 5353 5350 5348 5345 5343 5341 5340 5338 5337 5336 5336 5335 5335 5336 5336 5337 5338 5338 5338 5338 5338 5338 5338 5338 5338 5339 5339 5340 5340
5566 5563 5560 5558 5555 5552 5549 5545 5542 5538 5534 5531 5528 5526 5525 5522 5517 5511 5506 5503 5500 5495 5487 5479 5472 5465 5458 5454 5453 5449 5443 5437 5431 5427 5424 5422 5418 5413 5406 5398 5392 5387 5383 5376 5371 5371 5369 5366 5364 5363 5358 5355 5354 5351 5348 5346 5343 5341 5339 5337 5335 5334 5332 5331 5330 5329 5329 5329 5330 5330 5331 5332 5332 5332 5332 5332 5332 5332 5332 5332 5332 5333 5334 5334 5335
5556 5553 5550 5547 5545 5541 5538 5534 5531 5527 5523 5519 5516 5512 5510 5509 5509 5505 5499 5491 5486 5483 5479 5472 5464 5456 5447 5439 5434 5432 5431 5428 5421 5414 5408 5403 5399 5396 5393 5388 5382 5376 5369 5362 5358 5357 5355 5352 5350 5349 5346 5344 5343 5341 5338 5336 5334 5332 5330 5329 5327 5326 5325 5324 5323 5323 5323 5323 5324 5325 5325 5326 5327 5327 5327 5327 5327 5326 5326 5327 5327 5328 5329 5329 5330
5545 5543 5539 5537 5534 5530 5526 5523 5519 5515 5512 5508 5504 5500 5496 5492 5491 5492 5490 5486 5479 5472 5467 5461 5454 5448 5442 5433 5422 5414 5411 5411 5409 5404 5397 5390 5384 5379 5375 5373 5370 5364 5355 5348 5345 5344 5342 5339 5337 5336 5335 5333 5332 5330 5328 5326 5324 5323 5322 5321 5320 5319 5318 5318 5317 5317 5318 5318 5319 5320 5321 5321 5322 5322 5322 5322 5322 5321 5321 5322 5323 5324 5324 5325 5326
5535 5532 5528 5526 5523 5519 5515 5511 5507 5504 5500 5496 5492 5488 5484 5479 5475 5472 5471 5471 5469 5466 5461 5453 5444 5436 5430 5425 5418 5408 5399 5394 5392 5389 5384 5378 5371 5364 5358 5356 5356 5351 5342 5335 5331 5330 5329 5327 5325 5325 5324 5323 5321 5320 5319 5317 5316 5315 5315 5314 5313 5313 5312 5312 5312 5313 5313 5314 5315 5315 5316 5316 5317 5317 5317 5316 5316 5317 5317 5318 5319 5319 5320 5321 5322
5524 5521 5518 5515 5511 5508 5504 5500 5496 5493 5489 5485 5481 5476 5472 5468 5463 5459 5455 5451 5449 5448 5447 5444 5436 5427 5418 5411 5407 5402 5396 5386 5378 5374 5371 5365 5358 5350 5343 5340 5339 5335 5329 5324 5319 5317 5317 5315 5315 5315 5314 5313 5312 5311 5310 5309 5308 5308 5307 5307 5307 5307 5307 5307 5308 5308 5309 5310 5310 5311 5312 5312 5312 5312 5312 5311 5312 5312 5313 5314 5314 5315 5317 5318 5320
5514 5510 5507 5504 5501 5497 5493 5489 5485 5482 5478 5474 5470 5466 5462 5457 5452 5448 5444 5440 5435 5431 5429 5426 5423 5418 5410 5400 5392 5388 5386 5379 5369 5361 5356 5350 5343 5335 5329 5325 5322 5319 5316 5313 5309 5307 5306 5306 5305 5305 5305 5304 5304 5303 5302 5302 5302 5301 5301 5302 5302 5302 5302 5302 5303 5304 5304 5305 5305 5306 5307 5307 5307 5307 5307 5307 5308 5309 5309 5310 5311 5312 5314 5316 5317
5503 5500 5497 5494 5490 5487 5483 5479 5475 5471 5468 5464 5460 5456 5452 5448 5443 5438 5434 5429 5424 5419 5415 5411 5407 5402 5397 5390 5381 5374 5371 5368 5360 5350 5342 5335 5328 5321 5315 5311 5308 5306 5304 5302 5300 5298 5298 5298 5297 5297 5297 5297 5297 5296 5296 5296 5296 5296 5297 5297 5297 5297 5297 5298 5298 5299 5300 5300 5301 5302 5302 5303 5303 5303 5303 5304 5304 5305 5305 5307 5308 5310 5312 5313 5314
5493 5490 5487 5483 5480 5477 5473 5469 5466 5462 5458 5454 5451 5447 5443 5438 5434 5429 5424 5419 5414 5409 5404 5399 5394 5387 5381 5375 5368 5361 5356 5353 5347 5338 5329 5321 5314 5309 5305 5301 5298 5296 5295 5293 5291 5290 5290 5291 5290 5290 5290 5290 5291 5291 5291 5292 5291 5291 5292 5292 5292 5292 5293 5293 5294 5295 5295 5296 5297 5298 5298 5298 5299 5299 5299 5300 5300 5301 5303 5305 5306 5308 5309 5310 5311
5483 5480 5476 5473 5470 5467 5463 5460 5456 5453 5449 5445 5441 5437 5433 5429 5425 5420 5415 5410 5405 5400 5394 5388 5383 5375 5367 5359 5352 5345 5340 5336 5330 5323 5318 5312 5305 5300 5296 5293 5290 5289 5287 5286 5285 5284 5284 5284 5284 5284 5285 5285 5286 5286 5287 5286 5286 5287 5287 5287 5288 5288 5289 5289 5290 5290 5291 5292 5293 5294 5295 5295 5295 5296 5296 5297 5298 5300 5301 5303 5304 5305 5306 5307 5307
5473 5469 5466 5464 5460 5457 5454 5451 5447 5443 5440 5436 5432 5428 5424 5419 5415 5411 5406 5401 5396 5390 5384 5377 5371 5363 5355 5345 5335 5327 5323 5320 5315 5310 5306 5303 5298 5293 5289 5286 5283 5282 5281 5280 5279 5279 5279 5279 5279 5280 5281 5281 5282 5282 5282 5282 5282 5283 5283 5283 5284 5284 5285 5285 5286 5286 5287 5288 5290 5291 5291 5292 5292 5293 5294 5295 5297 5298 5299 5300 5301 5302 5303 5303 5303
5463 5460 5457 5455 5452 5449 5446 5442 5439 5435 5431 5427 5423 5419 5415 5410 5405 5401 5396 5391 5385 5380 5374 5367 5359 5351 5342 5332 5322 5313 5308 5305 5303 5299 5296 5294 5291 5287 5284 5280 5277 5276 5275 5275 5274 5274 5274 5275 5275 5276 5277 5277 5277 5278 5278 5278 5278 5279 5279 5279 5280 5280 5281 5281 5282 5283 5284 5286 5287 5287 5288 5289 5290 5291 5293 5294 5295 5295 5296 5297 5298 5299 5299 5299 5299
5454 5451 5449 5446 5443 5441 5438 5434 5431 5427 5423 5419 5415 5410 5405 5401 5396 5391 5386 5381 5374 5369 5363 5356 5348 5339 5330 5320 5312 5305 5299 5296 5293 5290 5288 5286 5283 5281 5278 5275 5273 5271 5270 5270 5270 5270 5270 5271 5272 5272 5273 5273 5274 5274 5274 5275 5275 5275 5275 5276 5276 5277 5277 5278 5279 5281 5282 5283 5284 5285 5286 5287 5288 5289 5290 5291 5292 5293 5294 5294 5295 5295 5295 5295 5295
5445 5443 5441 5438 5435 5433 5430 5426 5423 5419 5415 5411 5407 5402 5397 5392 5387 5381 5376 5371 5364 5358 5351 5344 5336 5329 5320 5312 5304 5299 5294 5290 5286 5283 5281 5279 5277 5275 5273 5270 5269 5267 5266 5266 5266 5266 5267 5267 5268 5269 5269 5270 5271 5271 5271 5271 5272 5272 5272 5273 5273 5274 5275 5276 5277 5278 5279 5280 5281 5283 5284 5285 5286 5287 5287 5288 5289 5290 5290 5291 5291 5291 5291 5291 5291
5437 5435 5432 5430 5428 5425 5421 5418 5415 5411 5407 5403 5398 5393 5388 5383 5378 5372 5367 5361 5355 5348 5340 5332 5324 5318 5312 5306 5299 5294 5289 5285 5281 5278 5275 5273 5271 5269 5268 5266 5264 5263 5262 5262 5262 5263 5263 5264 5265 5266 5266 5267 5267 5268 5268 5268 5269 5269 5270 5270 5271 5272 5273 5274 5275 5276 5277 5278 5279 5280 5281 5282 5283 5284 5285 5286 5286 5286 5287 5287 5287 5287 5287 5287 5287
5429 5427 5425 5422 5419 5416 5413 5410 5407 5403 5399 5395 5390 5385 5380 5374 5369 5363 5358 5352 5346 5339 5331 5323 5315 5309 5304 5299 5294 5290 5285 5281 5277 5274 5271 5268 5266 5265 5263 5262 5260 5259 5259 5259 5259 5260 5261 5261 5262 5263 5264 5264 5265 5265 5265 5266 5266 5267 5267 5268 5269 5270 5271 5272 5273 5274 5275 5276 5277 5278 5279 5280 5280 5281 5282 5282 5282 5283 5283 5283 5283 5283 5283 5283 5283
5421 5419 5416 5414 5411 5408 5405 5402 5399 5395 5391 5386 5382 5377 5371 5366 5361 5355 5349 5343 5336 5329 5322 5315 5309 5303 5298 5294 5289 5285 5281 5277 5274 5270 5267 5265 5263 5261 5259 5258 5257 5256 5256 5256 5257 5257 5258 5258 5259 5260 5261 5262 5262 5263 5263 5263 5264 5265 5265 5266 5267 5268 5269 5270 5271 5272 5273 5273 5274 5275 5276 5277 5277 5278 5278 5278 5278 5278 5279 5279 5279 5279 5279 5279 5279
5413 5410 5408 5405 5403 5400 5397 5394 5391 5387 5383 5378 5373 5368 5363 5358 5353 5347 5341 5334 5327 5320 5314 5308 5302 5297 5292 5288 5284 5281 5277 5273 5270 5267 5264 5262 5260 5258 5256 5255 5254 5253 5253 5254 5254 5255 5255 5256 5257 5258 5259 5259 5260 5260 5261 5261 5262 5262 5263 5264 5265 5266 5267 5267 5268 5269 5270 5271 5272 5272 5273 5273 5274 5274 5274 5274 5274 5274 5275 5275 5275 5275 5275 5274 5274
5404 5402 5400 5397 5395 5392 5389 5386 5382 5379 5375 5370 5365 5360 5355 5350 5345 5339 5333 5326 5319 5312 5307 5302 5296 5292 5287 5283 5279 5276 5273 5270 5267 5264 5261 5259 5257 5255 5253 5252 5251 5251 5251 5251 5252 5252 5253 5254 5255 5256 5256 5257 5257 5258 5258 5259 5260 5260 5261 5262 5262 5263 5264 5265 5266 5267 5267 5268 5268 5269 5269 5270 5270 5270 5270 5270 5270 5270 5271 5271 5270 5270 5270 5270 5270
5396 5393 5391 5389 5386 5383 5381 5377 5374 5370 5366 5362 5357 5353 5347 5342 5337 5331 5325 5318 5312 5305 5300 5295 5291 5287 5283 5279 5275 5272 5269 5267 5264 5261 5258 5256 5254 5252 5251 5250 5249 5249 5249 5249 5249 5250 5251 5252 5253 5254 5254 5255 5255 5255 5256 5257 5257 5258 5259 5259 5260 5261 5262 5262 5263 5264 5264 5265 5265 5265 5266 5266 5266 5266 5266 5266 5266 5266 5266 5266 5266 5266 5265 5265 5265
5387 5385 5383 5380 5377 5375 5372 5369 5365 5362 5358 5353 5349 5345 5339 5334 5329 5323 5317 5311 5305 5299 5294 5290 5286 5282 5278 5275 5272 5269 5266 5263 5261 5258 5255 5253 5252 5250 5248 5247 5247 5247 5246 5246 5246 5247 5248 5250 5251 5251 5252 5252 5253 5253 5254 5254 5255 5256 5256 5257 5257 5258 5259 5259 5260 5261 5261 5261 5262 5262 5262 5262 5262 5262 5262 5262 5262 5262 5262 5261 5261 5261 5260 5260 5259
5379 5377 5374 5372 5369 5366 5364 5360 5357 5353 5349 5345 5341 5336 5331 5326 5320 5314 5309 5304 5299 5294 5289 5284 5281 5277 5274 5271 5268 5265 5263 5260 5258 5255 5253 5251 5249 5247 5246 5245 5244 5244 5244 5244 5244 5245 5246 5247 5248 5249 5249 5250 5250 5251 5251 5252 5252 5253 5254 5254 5255 5255 5256 5256 5257 5257 5257 5258 5258 5258 5258 5258 5258 5258 5258 5257 5257 5257 5257 5256 5256 5256 5255 5255 5254